THORAD AGENA D DEB, 4687

Orbit data source: Space-Track

THORAD AGENA D DEB, 4687 is space debris in SSO originally from a launch on Wed, 08 Apr 1970 UTC launched from the Air Force Western Test Range (AFWTR). Debris objects in space refer to the collection of defunct objects orbiting the Earth. Examples of debris include non-operational satellites, rocket bodies, and fragments generated from explosions, collisions, or faulty payload assembly.

Loading next visibility...
Identifier
4687, 1970-025BL
Orbit
SSO
Country
Flag of USUS
Related business
Manufacturer
Unknown
Mission
Spacecraft
Bus & Motor
Unknown
Mass
Unknown
Launch date (UTC)
1970-04-08 (56 years ago)
Launch vehicle
Unknown
Launch site
Air Force Western Test Range (AFWTR)
Object type
Payload
Rocket body
Debris
Shape & HBR
Unknown shape, 0.3 m
Radar Cross Section
Medium (>0.1 m² and <1 m²)

Expand to show TLE details & history
Last TLE update: 14 hours ago

TLE from 14 hours ago
0 THORAD AGENA D DEB
1 04687U 70025BL  26132.67299409  .00000092  00000-0  20771-3 0  9990
2 04687  99.5629 278.8201 0027406  17.7415 353.5246 13.51236187759487
Epoch: 2026-05-12T16:09Z
TLE epoch observation values (Epoch: 2026-05-12T16:09:06.689Z)
Latitude
11.02626°
Longitude
164.22671°
Altitude
1,049.474 km
Speed
7.338 km/s
True Right ascension
18h 27m 47s
True Declination
10° 57' 52"
Sunlit
Object was in full shadow at epoch
Visualization orbit readout
Latitude
Unknown
Longitude
Unknown
Altitude
Unknown
Speed
Unknown
Apparent Right ascension
Unknown
Apparent Declination
Unknown
Sunlit
N/A
Visualization observer readout
Local Sidereal Time
14:29:04
Azimuth
Unknown
Elevation
Unknown
Doppler factor
Unknown
Orbital elements
Apogee altitude
1,085.405 km
Perigee altitude
1,044.608 km
Semi-major axis
7,443.143 km
Eccentricity
0.00274
Inclination
99.5629°
RAAN
278.8201°
Arg. of periapsis
17.7415°
True anomaly
353.48906°
Mean anomaly
353.5246°
Eccentric anomaly
353.50684°
Mean motion
3.37994 °/min
Orbital period
106.51 mins
BSTAR
0.00020771

Documentation

Showing up to 5 results
|